Location: Newark
(41.6500°N, 71.4833°W)
Time: 16:34:59
(UTC+00:00)

Transit 2A Rocket - Pass Details

Date: 29 January 2020
Orbit: 592 x 911 km, 66.7° (Epoch: 16 February)

Event Time Altitude Azimuth Distance (km) Brightness Sun altitude
Rises 09:40:19 0° 232° (SW) 2,831 - -26.4°
Reaches altitude 10° 09:42:44 10° 242° (WSW) 1,921 - -26.0°
Maximum altitude 09:46:37 33° 308° (NW) 1,003 - -25.2°
Exits shadow 09:49:24 17° 4° (N) 1,549 6.6 -24.7°
Drops below altitude 10° 09:50:34 10° 13° (NNE) 1,955 7.2 -24.5°
Sets 09:53:03 0° 23° (NNE) 2,889 8.2 -24.0°
